{"data":{"norad_id":69914,"intl_designator":"2026-156AX","name":"TOM-2","alt_names":[],"object_type":"PAYLOAD","status":"ACTIVE","operator":null,"country":"GER","launch_date":"2026-07-07","launch_site_code":"AFWTR","launch_vehicle":null,"mission":null,"orbit_class":"UNKNOWN","rcs_meters":null,"size_class":null,"mass_kg":null,"dimensions":null,"purposes":[],"wikipedia_slug":null,"has_3d_model":false,"image_url":null,"decayed_at":null,"tle_current":{"epoch":"2026-09-19T23:30:12.181824Z","epoch_age_seconds":62809,"freshness":"FRESH","line1":"1 69914U 26156AX  26262.97930766  .00000536  00000+0  59990-4 0  9993","line2":"2 69914  97.7475 162.0918 0001804 202.5366 157.5773 14.90852315 11122","mean_motion":14.90852315,"eccentricity":0.0001804,"inclination_deg":97.7475,"raan_deg":162.0918,"arg_perigee_deg":202.5366,"mean_anomaly_deg":157.5773,"bstar":5.999e-5,"rev_number":1112,"period_min":96.589044099918,"perigee_km":594.01861065687,"apogee_km":596.53461828898,"semimajor_km":6973.4136144729,"source":"CELESTRAK","updated_at":"2026-09-20T09:00:25.180269Z"}}}